Skip Page Navigation
NASA JPL Caltech
NASA Logo - Jet Propulsion Laboratory + View the NASA Portal
+ Near-Earth Object (NEO) Program
Search JPL
JPL Home Earth Solar System Stars & Galaxies Technology
JPL Solar System Dynamics
BODIES ORBITS EPHEMERIDES TOOLS PHYSICAL DATA DISCOVERY FAQ SITE MAP
JPL Small-Body Database Browser
Search: [ help ]  
30933 Grillparzer (1993 UW8)
Classification: Main-belt Asteroid          SPK-ID: 2030933
Ephemeris | Orbit Diagram | Orbital Elements | Physical Parameters | Discovery Circumstances ]

[ show orbit diagram ]
Orbital Elements at Epoch 2456400.5 (2013-Apr-18.0) TDB
Reference: JPL 1 (heliocentric ecliptic J2000)
 Element Value Uncertainty (1-sigma)   Units 
e .1760648846621882 7.3681e-08  
a 2.563043965434878 3.4229e-08 AU
q 2.111781925276468 1.8586e-07 AU
i 5.314302685559658 7.1911e-06 deg
node 85.73430411459209 0.00015361 deg
peri 200.8208107135275 0.00015931 deg
M 355.1172225963598 5.3262e-05 deg
tp 2456420.828106911839
(2013-May-08.32810691)
0.00022196 JED
period 1498.761439095331
4.10
3.0024e-05
8.22e-08
d
yr
n .2401983335101682 4.8117e-09 deg/d
Q 3.014306005593287 4.0256e-08 AU
  Orbit Determination Parameters
   # obs. used (total)      547  
   data-arc span      8108 days (22.20 yr)  
   first obs. used      1991-01-11  
   last obs. used      2013-03-24  
   planetary ephem.      DE405  
   SB-pert. ephem.      SB405-CPV-2  
   condition code      0  
   fit RMS      .55649  
   data source      ORB  
   producer      Otto Matic  
   solution date      2013-Apr-29 14:56:17  

Additional Information
 Earth MOID = 1.09647 AU 
 T_jup = 3.406 
[ show covariance matrix ]

Ephemeris | Orbit Diagram | Orbital Elements | Physical Parameters | Discovery Circumstances ]

Physical Parameter Table
Parameter Symbol Value Units Sigma Reference Notes
absolute magnitude H 14.2 mag n/a PDS3 (MPO 18587)  

30933 Grillparzer           Discovered 1993 Oct. 17 by F. Borngen at Tautenburg.
The dramatic poet and playwright Franz Grillparzer (1791-1872) was a celebrated figure in Austrian literature, a lifelong loyal to the Hapsburg Dynasty and a friend of Beethoven. Best known among his works are the historical tragedy King Ottocar, His Rise and Fall and the lyric tragedy The Waves of Sea and Love.
NOTE: some special characters may not display properly (any characters within {} are an attempt to place the proper accent above a character)
Reference: 20020427/MPCPages.arcLast Updated: 2003-10-02

Alternate Designations
 1993 UW8 = 1996 JZ12 
Ephemeris | Orbit Diagram | Orbital Elements | Physical Parameters | Discovery Circumstances ]
ABOUT SSD CREDITS/AWARDS PRIVACY/COPYRIGHT GLOSSARY LINKS
FirstGov 2013-May-25 14:25 UT
(server date/time)  
NASA Home Page
Site Manager:   Donald K. Yeomans
Webmaster  Alan B. Chamberlin